Location: Kitchener
(43.4500°N, 80.5000°W)
Time: 06:08:29
(UTC-05:00)

Cosmos 1939 Rocket - Visible Passes

Search period start: 03 March 2015 00:00
Search period end: 13 March 2015 01:00
Orbit: 537 x 593 km, 97.6° (Epoch: 02 March)

Date Brightness Start Highest point End Pass type
(mag) Time Alt. Az. Time Alt. Az. Time Alt. Az.
03 Mar 5.1 20:10:15 15° NNE 20:10:15 15° NNE 20:11:12 10° NNE visible
03 Mar 6.2 21:46:15 10° NW 21:46:15 10° NW 21:46:17 10° NW visible
04 Mar 5.0 20:10:23 16° NNE 20:10:23 16° NNE 20:11:30 10° NNE visible
04 Mar 6.1 21:46:23 11° NW 21:46:23 11° NW 21:46:33 10° NW visible
05 Mar 4.9 20:10:30 17° NNE 20:10:30 17° NNE 20:11:46 10° NNE visible
05 Mar 6.1 21:46:30 12° NW 21:46:30 12° NW 21:46:48 10° NW visible
06 Mar 4.8 20:10:37 18° NNE 20:10:37 18° NNE 20:12:02 10° NNE visible
06 Mar 6.0 21:46:37 12° NW 21:46:37 12° NW 21:47:03 10° NW visible
07 Mar 4.8 20:10:43 19° NNE 20:10:43 19° NNE 20:12:17 10° NNE visible
07 Mar 6.0 21:46:44 13° NW 21:46:44 13° NW 21:47:18 10° NW visible
08 Mar 4.7 21:10:50 20° NNE 21:10:50 20° NNE 21:12:32 10° N visible
08 Mar 5.9 22:46:50 14° NW 22:46:50 14° NW 22:47:33 10° NW visible
09 Mar 4.6 21:10:56 20° NNE 21:10:56 20° NNE 21:12:47 10° N visible
09 Mar 5.9 22:46:56 14° NW 22:46:56 14° NW 22:47:47 10° NW visible
10 Mar 4.6 21:11:01 21° NE 21:11:01 21° NE 21:13:02 10° N visible
10 Mar 5.8 22:47:02 15° NW 22:47:02 15° NW 22:48:00 10° NW visible
11 Mar 4.5 21:11:07 22° NE 21:11:07 22° NE 21:13:16 10° N visible
11 Mar 5.8 22:47:07 16° NW 22:47:07 16° NW 22:48:14 10° NW visible
12 Mar 4.4 21:11:12 23° NE 21:11:12 23° NE 21:13:29 10° N visible
12 Mar 5.7 22:47:13 17° NW 22:47:13 17° NW 22:48:27 10° NW visible
